Location: Newark
(13.8117°N, 3.6025°W)
Time: 13:17:36
(UTC+00:00)

N. Korean satellite - Pass Details

Date: 28 August 2019
Orbit: 455 x 508 km, 97.2° (Epoch: 16 September)

Event Time Altitude Azimuth Distance (km) Brightness Sun altitude
Rises 05:25:49 0° 28° (NNE) 2,497 10.8 -9.6°
Reaches altitude 10° 05:28:07 10° 42° (NE) 1,612 10.1 -9.0°
Maximum altitude 05:31:01 25° 99° (E) 962 9.0 -8.4°
Drops below altitude 10° 05:33:53 10° 156° (SSE) 1,594 9.3 -7.7°
Sets 05:36:08 0° 170° (S) 2,461 10.1 -7.1°
